Date,TemperatureHighF,TemperatureAvgF,TemperatureLowF,DewpointHighF,DewpointAvgF,DewpointLowF,HumidityHigh,HumidityAvg,HumidityLow,PressureMaxIn,PressureMinIn,WindSpeedMaxMPH,WindSpeedAvgMPH,GustSpeedMaxMPH,PrecipitationSumIn
2013-8-1,84,73,64,67,62,60,91,72,48,30.01,29.84,9,2,20,0.00
2013-8-2,83,72,65,70,63,57,95,75,44,29.84,29.75,7,2,11,0.44
2013-8-3,80,71,65,65,63,60,91,76,54,29.82,29.74,8,2,15,0.00
2013-8-4,80,68,60,62,58,54,87,72,42,29.84,29.72,7,2,17,0.05
2013-8-5,76,65,55,56,49,41,90,60,32,30.01,29.84,10,2,16,0.05
2013-8-6,77,66,56,54,50,45,77,57,38,30.12,30.00,6,2,9,0.00
2013-8-7,82,70,58,63,54,49,89,60,36,30.15,30.08,7,2,15,0.00
2013-8-8,82,73,66,72,66,54,90,78,66,30.10,29.97,7,2,14,0.05
2013-8-9,75,73,72,74,71,69,97,93,88,29.99,29.71,7,2,17,1.09
2013-8-10,84,74,64,71,63,56,98,73,44,29.97,29.75,8,2,15,0.01
2013-8-11,79,68,57,59,55,51,88,65,41,30.04,29.96,6,1,10,0.00
2013-8-12,82,71,61,64,58,54,91,67,40,29.99,29.88,7,1,13,0.00
2013-8-13,76,70,66,68,64,61,90,81,65,29.89,29.65,5,1,9,0.00
2013-8-14,75,67,60,63,55,50,93,66,44,29.92,29.62,13,3,19,0.00
2013-8-15,78,65,54,56,52,47,90,64,37,30.08,29.92,8,2,27,0.00
2013-8-16,79,64,56,58,54,52,87,73,39,30.16,30.07,6,1,11,0.00
2013-8-17,80,69,59,60,57,54,87,67,47,30.25,30.16,7,2,9,0.00
2013-8-18,82,71,63,64,59,55,83,66,43,30.24,30.05,5,1,9,0.00
2013-8-19,83,72,60,64,60,56,91,68,44,30.05,29.92,9,2,11,0.00
2013-8-20,86,75,65,65,60,54,84,62,35,30.06,29.94,6,1,9,0.00
2013-8-21,88,76,65,66,62,59,85,64,40,30.11,29.99,6,1,13,0.00
2013-8-22,89,77,66,71,66,62,89,72,46,30.00,29.78,10,2,14,0.00
2013-8-23,80,72,65,69,59,49,91,65,41,30.10,29.78,17,3,17,0.00
2013-8-24,76,66,57,52,46,40,74,51,29,30.30,30.10,9,2,13,0.00
2013-8-25,84,70,56,55,51,46,83,54,29,30.33,30.16,9,2,14,0.00
2013-8-26,84,73,66,65,61,55,83,67,50,30.16,29.84,10,2,15,0.00
2013-8-27,82,74,68,70,66,64,92,78,61,29.86,29.80,6,2,9,0.00
2013-8-28,84,72,65,69,64,62,94,79,53,29.95,29.82,8,2,12,0.00
2013-8-29,66,65,62,65,62,58,95,90,84,30.04,29.92,9,2,16,0.00
2013-8-30,83,72,62,68,63,58,89,75,54,29.99,29.78,5,2,10,0.00
2013-8-31,82,75,69,76,70,66,94,85,72,29.80,29.75,8,2,17,0.03